RH
5 5 5 5 5 5 5 5 5 6 6 4 2 1 2 3 5 6 7 5 3 3 4 4 4 4 4 6 6 5 5 6 6 6 6 6 6 9 12 11 16 23 33 42 43 43 44 43 43 42 40 37 37 37 35 35 37 38 43 47 42 33 31 29 28 29 30 30 26 27 32 34 35 45 58 65 65 65 69 77 83 87 90 88 80 70 64 63
4 5 5 5 5 4 4 5 5 5 6 6 4 1 2 3 4 6 6 6 4 3 4 4 4 4 4 5 6 5 5 5 5 5 5 6 6 8 11 11 17 26 35 42 45 46 45 45 45 45 43 39 36 34 35 35 37 43 47 49 43 33 30 29 29 28 29 31 30 28 29 34 35 39 45 51 55 57 62 70 75 79 84 84 76 67 68 71
4 4 5 5 5 5 5 5 5 5 5 7 6 3 1 2 3 5 6 6 5 4 3 4 4 4 4 5 6 5 5 5 5 5 5 6 6 8 11 12 18 27 37 45 49 48 48 50 48 47 45 40 34 32 35 35 37 42 48 52 45 34 30 28 30 30 28 27 30 31 29 33 36 37 39 43 48 53 59 65 69 73 76 77 74 71 70 72
3 4 4 5 5 5 5 4 5 5 5 6 7 6 3 1 3 4 6 6 6 4 3 4 4 4 4 4 6 6 5 5 5 5 5 7 7 9 10 12 18 27 39 48 51 51 52 54 53 51 47 41 33 31 34 35 36 39 46 53 45 35 32 29 29 31 30 27 27 32 32 31 34 37 38 40 44 50 57 63 65 68 72 73 74 74 73 71
3 3 3 4 5 5 5 5 4 5 5 5 6 7 5 2 2 3 5 6 7 5 4 4 4 4 4 4 5 6 6 5 6 5 5 7 8 9 8 12 19 26 38 48 51 52 53 53 53 52 46 38 32 31 33 33 34 36 43 50 44 36 33 30 30 29 30 30 28 32 35 32 33 34 36 38 41 46 51 60 66 66 68 70 71 72 74 78
4 3 3 3 4 4 5 5 5 5 5 5 5 7 7 4 2 2 4 6 7 6 4 3 4 4 4 4 4 5 5 6 7 6 6 7 8 9 8 13 20 23 35 46 50 52 50 49 51 51 45 36 30 30 32 31 32 35 40 48 44 36 36 33 31 29 31 34 31 34 38 35 33 33 34 36 37 41 43 51 63 67 65 62 61 63 67 72
4 4 4 3 3 4 4 5 5 5 4 5 5 6 7 6 3 2 3 5 6 7 5 3 3 4 4 3 3 4 5 6 7 6 6 6 8 9 8 16 22 23 32 41 46 49 48 49 50 50 47 38 30 28 30 31 33 34 37 47 44 35 37 36 33 31 32 35 33 35 40 37 34 32 31 34 35 37 39 42 51 59 59 54 51 52 59 65
5 4 4 4 3 3 4 4 5 5 5 5 5 5 6 7 6 2 2 4 6 7 6 4 3 4 4 4 3 3 4 5 6 6 6 5 7 8 9 19 24 26 34 41 46 48 46 49 50 51 50 43 34 26 27 31 33 35 36 44 44 34 33 35 35 35 34 35 35 37 43 41 37 34 30 32 34 35 38 39 41 44 46 46 46 46 51 58
5 5 5 4 4 3 4 4 4 5 5 5 5 5 5 7 7 4 2 2 4 6 6 5 3 3 4 4 3 3 4 4 5 6 6 5 7 8 10 19 25 29 38 44 49 49 47 49 50 51 50 46 39 29 26 31 34 36 35 39 44 35 29 32 38 40 36 34 36 36 42 46 45 44 39 34 34 34 35 37 38 38 38 41 43 44 47 49
5 5 5 5 4 4 4 3 4 4 5 5 4 5 5 6 7 6 3 2 3 5 6 5 3 3 3 4 3 4 3 3 4 6 6 5 6 7 10 18 23 30 37 43 48 50 48 48 49 49 45 45 43 34 29 31 34 37 36 37 41 36 29 31 39 44 40 34 34 35 38 45 49 50 49 42 37 36 35 34 35 37 38 40 41 42 42 42
5 5 5 5 5 5 4 4 4 4 4 5 5 5 5 5 6 7 5 2 2 3 5 5 3 3 3 4 3 3 4 3 4 6 6 5 6 7 12 18 22 28 34 40 48 52 49 47 49 49 43 43 43 38 32 30 32 35 37 37 40 38 30 30 39 46 44 35 34 36 36 44 50 51 52 48 43 45 45 39 35 38 39 41 42 42 41 39
5 5 5 6 6 6 5 4 4 4 4 4 5 5 5 5 5 7 7 4 2 2 4 4 4 3 3 4 4 3 4 3 3 6 7 6 7 7 13 21 22 25 29 36 47 52 52 51 54 52 45 41 41 38 33 32 33 34 36 37 40 40 30 29 38 45 46 38 35 38 38 43 52 55 55 52 50 53 56 49 40 39 40 43 44 43 42 40
6 5 6 6 6 6 6 5 4 4 4 4 5 5 5 5 4 6 7 6 3 2 3 3 3 3 3 4 4 3 3 4 3 5 7 8 8 7 13 19 21 23 24 29 43 51 54 55 57 59 53 47 43 36 32 36 38 35 35 37 40 40 32 28 35 44 47 41 37 41 41 42 50 59 59 56 57 57 58 57 49 42 41 44 46 46 43 41
6 5 6 6 7 7 7 6 5 4 4 4 4 5 5 4 5 5 6 7 5 2 2 3 3 3 3 3 3 3 3 4 4 4 7 8 9 8 11 15 17 21 23 24 35 47 55 56 58 62 59 53 49 43 39 40 41 39 38 37 39 39 33 28 33 40 47 45 41 43 44 42 47 58 63 60 59 58 57 59 57 49 45 46 47 48 47 45
6 6 6 7 7 7 7 7 6 5 4 4 4 4 5 5 5 4 5 7 6 3 2 2 3 3 3 3 4 4 3 4 4 4 6 7 9 8 8 12 14 20 23 21 30 46 54 56 59 61 58 53 50 48 46 42 39 40 40 37 38 38 31 28 32 37 44 48 44 44 48 48 50 56 62 62 59 59 58 59 62 58 52 50 49 49 52 52
7 6 6 7 8 8 8 7 7 6 5 4 4 4 4 5 5 4 5 6 8 5 2 2 2 2 3 3 4 4 3 4 4 4 5 6 9 8 6 9 12 16 19 20 30 45 53 57 60 57 55 55 51 48 47 42 38 38 38 38 38 35 28 27 31 33 38 45 46 46 50 51 52 55 62 63 60 60 58 57 63 64 58 55 52 50 51 53
7 6 6 7 8 9 8 8 8 7 6 5 4 4 4 4 5 5 4 5 8 7 3 2 2 2 3 3 4 4 3 3 4 4 5 6 7 7 5 7 9 11 16 23 33 45 53 59 59 54 54 58 54 49 43 36 37 39 38 38 38 34 28 28 30 31 32 39 46 49 52 52 52 57 64 66 62 58 57 56 61 65 62 58 56 53 50 50
7 7 6 7 8 9 9 9 8 7 7 6 5 4 4 4 4 5 4 4 6 8 5 2 2 2 2 3 3 4 4 3 4 4 5 6 6 5 5 6 7 9 17 26 36 46 55 59 58 54 57 58 52 48 42 34 36 41 38 38 38 34 31 30 29 29 29 35 45 52 54 52 51 56 64 69 65 58 58 58 60 64 64 63 61 59 58 57
8 7 6 7 8 10 10 9 8 8 7 7 6 5 4 4 4 4 5 4 5 7 7 4 2 2 2 3 3 4 4 3 3 4 5 5 4 4 5 5 5 9 17 26 38 49 54 57 56 53 56 54 49 49 46 39 37 39 38 37 36 33 31 30 28 27 26 35 47 54 58 54 50 54 61 70 67 58 60 60 59 64 66 67 67 65 66 67
9 7 7 7 8 10 11 10 9 8 7 7 6 6 5 4 4 4 4 5 4 6 8 5 3 2 2 2 3 4 4 3 3 4 5 4 4 4 4 5 5 7 14 25 39 48 48 50 51 51 53 50 47 49 44 39 37 36 36 35 34 32 31 27 26 25 24 35 49 54 60 58 49 50 59 70 68 58 59 60 58 63 67 69 69 68 69 71
9 8 7 7 8 10 12 11 10 8 7 6 6 6 5 5 5 4 5 5 4 5 7 7 4 2 2 2 2 4 3 4 3 3 4 4 3 3 4 5 4 7 14 23 35 39 38 45 47 46 48 44 43 43 37 35 35 33 34 35 33 32 30 25 25 27 26 36 49 52 60 61 49 48 57 66 67 59 58 60 57 58 64 67 66 65 66 69
9 8 7 7 8 11 12 12 10 9 7 6 5 5 5 5 5 5 5 5 5 5 6 8 6 2 2 2 2 3 3 4 4 3 4 4 4 3 4 5 4 8 13 17 26 29 31 40 41 40 43 39 36 34 32 33 33 34 35 35 34 32 28 24 26 30 30 38 47 45 53 58 49 47 52 57 63 60 58 60 56 53 59 64 62 59 58 61
9 8 7 7 8 11 13 13 12 10 8 6 5 5 5 5 6 5 5 5 5 5 5 7 7 4 2 2 2 2 3 4 4 3 3 3 4 3 4 5 5 7 8 10 19 23 28 35 34 35 39 35 30 28 29 31 32 35 36 33 33 31 26 25 31 36 36 41 44 40 42 45 44 49 48 48 57 60 58 58 55 53 57 59 58 56 54 54
10 8 8 7 8 11 13 14 13 12 10 7 5 5 5 5 5 5 5 5 5 5 5 6 7 6 3 2 2 2 3 3 4 3 3 3 4 4 5 5 5 5 5 8 12 16 25 28 26 32 36 33 30 26 25 27 29 33 35 33 31 30 28 28 34 39 38 39 40 38 36 35 40 49 45 44 53 58 58 57 53 53 56 56 54 54 53 52
9 8 8 7 8 11 14 15 15 13 11 9 7 5 5 5 5 5 5 4 5 5 5 5 7 8 4 2 2 2 2 3 3 4 3 3 4 4 5 4 5 4 4 8 10 15 23 19 20 28 29 31 32 28 22 22 27 32 34 32 31 32 31 30 34 36 35 35 35 35 34 32 37 42 40 42 50 55 58 56 49 48 51 52 51 51 50 49
9 8 7 8 9 12 15 16 16 14 12 10 9 7 5 5 4 4 5 4 5 5 5 5 6 8 6 3 2 2 2 2 3 4 3 3 4 4 5 4 5 4 4 8 8 13 16 10 15 22 22 29 33 28 21 20 27 34 34 32 33 35 34 34 36 34 33 33 32 33 33 32 34 35 35 41 48 53 57 56 48 44 46 46 44 45 44 42
9 8 7 8 9 12 15 17 17 15 13 12 10 8 6 5 5 5 5 5 5 6 5 5 5 8 9 6 2 2 3 2 3 3 3 3 3 3 5 4 4 4 4 6 6 9 9 7 13 16 19 30 32 26 20 19 25 31 31 30 33 35 35 37 37 34 33 32 31 32 32 34 35 34 37 42 47 49 52 55 50 43 44 44 40 40 43 40
9 7 7 8 9 13 16 17 17 15 15 13 11 10 9 7 5 5 5 5 6 6 5 6 5 6 9 9 4 2 3 3 2 3 3 3 3 3 4 4 5 4 4 4 5 9 9 8 11 11 17 29 30 25 21 18 21 24 25 28 31 33 34 36 36 34 33 30 30 33 33 36 38 37 42 44 43 44 48 52 49 44 45 46 41 40 44 43
8 7 7 8 9 13 16 17 17 17 16 14 12 11 10 8 7 5 5 6 7 7 6 6 6 5 8 10 7 3 2 3 2 3 3 2 3 3 3 4 5 4 4 3 4 9 10 8 8 8 16 27 28 26 22 18 20 22 25 27 29 32 34 35 36 35 33 30 31 32 34 39 40 42 45 43 39 41 44 45 45 46 47 47 44 41 46 47
7 7 7 8 10 14 17 17 18 18 17 15 14 12 10 10 8 6 6 6 9 10 8 7 6 6 7 10 9 5 2 2 2 3 3 2 3 3 3 4 5 4 4 3 4 8 9 6 6 7 14 26 29 27 22 19 21 24 26 27 28 30 32 34 35 33 33 33 35 36 38 41 42 42 42 38 36 40 42 43 45 47 47 47 46 44 46 49
7 8 8 8 12 15 17 19 20 19 18 16 14 13 11 10 9 8 7 7 9 11 10 8 7 6 6 8 12 9 4 2 2 2 3 3 2 3 3 3 4 4 3 4 5 6 6 4 5 7 12 22 26 26 24 20 21 25 27 28 28 29 28 30 33 33 34 35 37 39 40 41 39 37 36 35 35 38 43 46 48 47 46 48 50 47 46 48
8 8 8 9 13 17 18 21 21 19 18 17 15 13 12 10 10 10 9 7 9 11 10 9 7 6 6 7 11 12 7 3 2 2 2 3 3 2 3 3 3 4 3 4 5 6 6 4 5 7 10 17 22 25 27 23 23 26 27 29 31 29 27 29 34 35 35 36 37 38 37 35 34 33 35 34 34 39 45 48 52 51 48 49 50 47 46 49
8 8 9 11 16 19 20 21 21 20 19 17 16 14 12 10 10 11 9 8 9 10 9 10 8 7 6 6 10 12 10 5 2 2 2 2 3 2 2 3 3 4 4 4 5 6 5 4 5 7 10 15 17 22 30 29 28 27 25 28 32 31 30 33 36 35 33 34 35 35 33 31 32 34 34 34 37 45 47 46 52 55 52 49 47 45 48 50
9 8 10 14 19 21 21 21 21 20 19 17 16 14 12 11 11 11 10 8 8 9 9 10 9 7 6 6 8 11 12 8 3 2 2 2 2 2 2 2 2 3 3 3 3 4 5 5 4 6 11 15 15 22 31 30 30 29 24 25 28 29 32 35 37 36 33 32 32 31 29 29 31 33 35 40 46 49 46 45 51 55 51 45 44 45 46 47
9 9 12 17 21 22 22 22 21 20 19 17 16 13 11 11 12 11 10 9 8 8 10 10 10 8 7 6 7 9 12 11 7 4 2 2 2 2 2 2 2 2 2 3 2 2 4 4 4 9 15 20 22 26 30 29 32 31 25 23 25 27 31 33 35 35 32 30 29 28 28 29 32 36 42 48 50 48 46 49 52 50 44 41 43 44 42 43
11 12 16 20 23 23 23 23 22 21 19 17 14 11 9 11 12 11 10 9 8 9 11 13 12 10 8 7 7 8 10 11 10 6 4 3 2 2 2 2 2 2 2 2 2 3 5 5 10 18 23 28 32 31 29 28 31 29 27 29 30 28 28 30 32 33 30 27 27 28 31 35 39 44 47 48 48 48 49 52 51 45 41 41 44 42 37 36
15 17 20 23 25 24 24 23 22 20 18 14 11 8 8 11 12 11 11 10 10 11 16 20 17 13 11 9 8 8 9 11 11 10 7 4 2 2 2 2 2 2 2 3 3 5 7 10 19 27 32 36 35 29 26 25 26 29 33 37 36 33 32 32 32 33 31 28 30 32 37 42 45 47 48 47 48 49 50 51 49 45 44 46 46 42 34 30
20 22 24 25 26 25 24 23 21 18 14 11 8 7 8 11 12 12 12 13 14 18 25 27 23 18 16 13 12 11 10 11 13 13 10 7 4 3 2 2 2 3 2 2 5 8 11 20 30 35 38 38 32 28 29 27 28 34 39 39 37 36 38 37 35 34 33 32 35 38 40 43 46 48 47 48 50 50 49 51 50 48 50 49 45 41 32 27
24 25 26 26 25 24 23 21 19 15 10 8 6 6 9 12 14 13 13 15 18 23 31 31 27 24 20 15 12 11 12 14 16 15 13 10 6 3 2 2 2 3 2 3 9 15 18 28 37 38 38 38 33 33 36 35 33 34 36 35 34 34 35 36 35 35 35 37 40 42 43 45 48 49 50 52 54 54 52 51 50 52 56 51 42 38 30 25
26 27 27 26 24 23 22 19 15 11 8 6 5 7 11 15 15 14 15 18 21 27 34 35 30 27 23 16 11 11 13 15 16 17 15 11 8 5 3 2 3 3 3 4 12 18 22 29 35 37 37 37 35 36 38 39 38 36 36 37 37 36 36 36 36 37 38 41 43 44 44 47 50 52 54 52 49 49 49 50 52 56 60 51 40 34 28 25
28 27 26 25 23 22 19 16 12 9 7 6 6 8 12 17 19 19 20 21 23 29 36 36 31 27 24 19 14 13 15 16 17 17 16 13 11 7 3 3 4 3 4 7 13 21 28 34 36 36 36 35 35 35 36 38 40 40 42 44 44 43 42 41 40 40 41 44 45 45 45 48 51 51 49 45 42 44 49 53 56 58 57 49 39 33 27 28
28 26 24 22 21 18 15 13 10 8 7 5 7 11 14 22 28 29 27 25 26 32 36 34 31 27 23 19 15 14 15 15 17 18 18 16 14 10 5 4 3 5 13 22 28 34 38 39 38 36 35 35 35 36 36 38 40 40 41 42 44 44 44 44 44 44 45 47 47 47 46 48 49 47 46 45 45 51 57 58 56 53 50 46 41 34 29 32
28 25 22 20 18 15 12 10 8 8 7 6 11 14 17 26 35 35 33 30 29 31 34 34 31 26 22 19 16 15 14 15 18 21 22 21 18 11 7 5 4 12 26 35 39 41 41 40 39 37 36 35 35 37 38 39 41 40 39 41 44 46 47 48 48 49 49 50 50 47 45 46 46 44 48 52 55 60 62 56 50 47 46 44 41 35 32 36
26 23 19 17 15 12 10 9 7 9 7 7 13 17 18 28 36 37 38 34 28 28 31 33 31 26 22 19 16 17 20 23 25 25 26 26 23 15 10 6 5 14 28 35 38 40 40 40 40 38 37 36 34 36 37 38 39 41 44 46 48 49 51 52 52 52 52 51 49 46 45 45 40 40 49 57 60 61 56 47 44 45 43 40 38 37 37 41
24 20 16 14 12 9 8 8 7 9 8 8 15 18 20 29 35 39 41 35 27 27 32 34 32 28 23 19 20 25 29 31 30 28 29 31 29 23 17 11 6 12 23 31 37 41 41 43 42 40 39 37 34 36 39 42 44 45 48 50 49 50 51 52 53 53 52 50 47 46 46 41 36 40 51 55 54 50 43 39 41 44 42 39 40 41 42 42
20 17 13 11 10 8 7 8 8 10 8 9 16 19 21 30 37 41 44 40 33 31 35 37 33 30 25 23 28 33 34 34 32 32 34 35 34 31 27 24 19 17 22 30 37 42 44 46 45 43 42 40 38 40 42 45 48 49 53 55 54 53 53 53 53 51 49 48 46 46 45 40 37 43 49 48 44 40 36 38 43 44 42 41 44 45 44 40
18 15 12 10 9 8 7 8 8 10 8 9 17 21 23 31 40 44 49 51 43 34 37 39 34 29 26 26 33 37 35 35 35 36 38 38 37 36 35 35 31 25 26 32 38 40 41 43 45 45 45 44 44 45 45 46 48 48 50 52 51 51 50 50 49 48 47 46 46 45 43 39 39 44 48 47 41 36 37 43 45 44 44 44 46 48 45 38
16 13 11 10 9 8 8 8 8 9 8 9 16 23 26 32 40 46 53 59 51 38 37 39 33 30 30 31 36 38 36 37 37 37 39 38 37 37 36 36 35 33 35 37 38 38 39 40 42 43 45 46 46 47 47 47 47 47 47 47 46 46 45 46 45 45 45 43 42 42 41 40 43 47 48 44 38 36 40 45 46 46 46 46 46 43 36 29
14 12 11 10 9 9 9 9 9 9 8 9 15 23 29 33 41 48 54 59 54 41 38 39 33 32 35 36 39 40 37 38 39 38 38 37 36 36 37 37 37 39 41 41 40 40 38 37 37 37 39 40 42 45 46 47 47 46 45 44 44 43 42 43 42 41 41 40 41 42 44 48 50 49 46 40 35 37 42 47 50 50 46 43 38 32 25 22
12 11 10 9 9 9 9 9 9 9 8 9 14 22 32 40 45 49 53 56 52 42 38 39 35 33 37 40 40 40 39 38 40 40 38 37 36 36 37 38 38 40 40 40 42 40 36 36 37 35 35 34 35 38 41 44 46 46 46 45 44 43 42 42 42 42 43 44 46 49 51 52 50 47 44 38 34 38 47 53 55 50 41 33 28 23 22 23
11 10 10 9 8 8 8 8 8 9 8 8 13 21 32 42 48 48 49 52 50 42 38 39 37 34 36 39 39 39 40 40 42 43 39 36 37 38 40 40 40 42 42 42 43 40 36 37 38 37 36 35 33 34 35 38 41 42 44 44 44 44 44 43 44 45 46 48 51 51 49 47 47 45 40 35 35 42 51 54 51 42 31 24 22 23 24 25
10 10 9 8 8 7 8 8 8 9 8 8 13 21 27 36 45 48 48 50 48 42 39 39 40 38 36 38 40 41 42 41 43 44 40 37 39 40 40 42 43 43 45 45 44 39 36 37 37 35 36 36 35 36 36 36 38 39 40 41 42 42 43 44 45 46 47 48 47 46 44 44 44 41 37 38 43 48 50 46 39 30 24 23 24 25 26 26
Wind_Speed
19 19 18 16 15 14 13 12 11 11 12 11 10 11 13 15 16 17 17 18 20 20 20 18 16 15 13 13 13 13 12 10 8 6 4 6 8 10 12 17 23 26 25 23 23 25 26 27 27 28 29 29 30 31 33 35 36 37 39 40 42 42 42 43 45 45 43 40 36 32 30 31 30 29 28 28 28 28 26 23 18 14 11 11 11 11 10 9
20 20 20 19 17 16 15 14 13 12 12 13 12 11 12 14 16 17 18 19 20 20 21 20 18 17 15 14 14 14 13 11 9 7 5 5 7 9 11 17 23 25 26 24 23 25 25 25 25 25 26 27 27 29 31 33 35 36 37 38 40 40 39 40 42 43 43 41 38 33 31 31 30 29 28 28 29 29 28 26 22 18 15 14 13 12 11 9
20 20 20 20 19 18 16 16 15 13 13 13 13 12 11 13 15 17 18 19 20 21 21 21 20 18 17 15 15 15 14 12 11 9 6 6 6 9 11 16 22 26 25 23 23 24 24 24 23 23 23 24 25 27 29 31 33 35 35 36 37 37 36 37 39 39 41 41 39 35 31 31 30 29 28 28 28 28 28 27 25 23 20 17 15 13 11 9
19 21 21 21 21 20 19 17 16 15 14 14 14 14 12 12 14 16 18 19 20 21 22 22 21 20 18 16 16 16 15 13 11 10 8 7 6 8 11 15 21 26 26 25 25 24 23 23 22 21 21 22 23 26 27 29 31 33 34 34 35 35 33 34 36 37 38 40 39 36 32 30 30 29 28 28 27 26 26 26 25 24 22 19 17 14 11 9
19 20 21 22 22 22 21 19 18 17 16 15 15 15 14 13 13 16 18 19 20 21 22 23 22 21 19 18 16 16 16 14 12 11 9 8 8 9 11 14 19 24 27 26 25 23 22 22 21 20 20 22 23 25 26 28 30 31 32 32 32 32 31 31 33 35 36 38 39 36 32 30 29 28 27 27 27 26 25 24 23 23 22 21 19 17 15 13
19 19 21 22 22 22 22 22 20 19 17 16 16 16 15 14 13 14 17 19 20 21 22 23 23 22 21 19 18 17 17 15 14 12 11 10 9 9 10 13 16 21 25 26 24 22 20 19 18 18 19 21 24 26 26 28 30 30 31 30 30 30 29 29 31 33 35 36 37 36 32 30 28 27 26 26 26 26 25 24 23 22 22 21 20 19 19 17
19 19 20 21 22 23 23 23 22 21 19 18 17 17 17 16 14 14 16 18 20 21 22 24 24 24 22 21 19 17 17 16 15 14 12 12 11 10 11 13 16 19 21 21 21 19 17 16 15 15 16 19 23 25 26 28 29 29 29 29 28 28 27 28 29 31 33 35 36 36 33 30 29 27 25 25 25 26 25 25 24 22 21 21 20 19 19 19
19 19 20 21 22 23 24 24 24 23 21 19 18 18 17 17 16 15 15 17 20 21 22 24 25 25 24 22 20 18 17 18 17 15 13 13 12 11 11 14 16 17 16 15 16 15 15 16 14 13 13 16 19 22 25 27 27 27 27 27 25 26 26 26 26 28 30 33 35 35 32 31 31 29 27 26 25 25 25 25 24 23 22 21 21 20 19 19
19 19 20 21 21 22 23 24 25 24 23 21 20 19 18 18 18 16 15 16 19 21 23 24 25 26 25 23 21 19 19 18 17 16 14 13 12 12 12 14 16 16 15 13 14 14 14 15 12 9 9 12 15 18 21 24 25 25 25 24 23 23 24 25 24 25 28 30 32 33 32 30 32 31 30 28 27 26 26 25 25 25 24 23 22 22 21 19
19 19 20 21 21 22 23 24 25 25 25 24 22 20 20 19 19 18 16 16 18 20 22 24 25 26 26 25 23 21 20 19 17 16 15 13 13 13 13 15 16 17 17 15 15 14 12 13 9 6 6 8 12 14 16 20 23 23 22 22 20 20 22 23 22 22 25 28 30 32 31 28 29 31 30 29 28 29 27 25 24 25 26 25 23 23 22 19
20 20 20 21 21 22 22 23 25 26 26 25 24 22 21 20 20 19 17 16 17 19 22 24 26 27 27 26 24 22 21 19 17 16 15 13 13 15 14 15 16 18 18 16 16 14 11 10 6 3 2 5 10 13 14 17 20 21 20 21 18 17 20 21 20 20 22 26 28 30 30 27 27 29 29 29 29 31 31 27 25 24 25 25 24 24 23 21
21 20 20 20 21 22 22 22 24 25 26 26 25 24 22 21 20 20 19 17 17 18 20 23 26 27 27 26 26 25 23 21 17 16 15 13 14 16 16 17 17 17 18 16 16 13 10 8 5 3 2 5 11 13 14 16 18 18 18 19 17 14 17 19 19 19 19 23 26 28 29 27 26 27 28 28 29 32 33 29 26 25 24 23 23 23 23 23
22 21 21 21 21 21 22 22 23 24 26 27 26 26 24 22 21 21 20 19 18 18 19 22 25 27 28 27 28 27 24 22 18 16 16 14 16 17 18 18 18 17 16 16 17 14 11 8 5 3 2 5 10 12 13 16 16 16 16 16 14 12 15 18 18 17 16 20 23 25 26 25 26 27 28 28 29 31 33 31 27 25 24 22 20 20 20 21
22 22 21 21 21 21 21 22 22 23 25 26 27 27 25 24 22 21 21 20 19 18 19 21 24 27 28 28 29 27 24 22 19 17 17 18 19 19 19 19 18 17 16 16 18 17 14 10 7 5 1 5 9 10 11 12 13 14 14 13 12 11 13 17 18 16 14 16 20 23 24 24 26 27 28 27 27 29 32 33 29 24 23 21 18 18 18 18
22 22 22 21 21 21 21 22 22 23 24 25 27 27 26 25 23 22 22 21 20 19 19 19 22 25 28 29 29 27 24 22 21 20 20 20 21 21 20 20 18 17 16 16 18 19 16 12 8 6 3 5 7 8 8 9 11 12 13 13 11 10 12 16 17 16 13 13 17 21 23 24 26 26 26 27 26 28 31 34 33 26 22 21 19 18 18 18
22 22 22 21 21 21 21 22 21 22 23 24 26 27 27 26 24 23 22 22 21 20 19 19 21 24 27 28 28 28 25 24 24 23 21 22 23 23 20 19 17 17 17 16 19 21 18 14 10 8 7 6 5 6 6 8 9 11 12 12 11 10 12 16 17 16 14 12 15 19 21 24 26 25 25 26 27 28 30 33 35 29 23 21 20 19 19 19
22 22 22 22 21 21 21 22 21 21 22 23 24 26 26 26 25 24 23 22 23 21 20 20 19 22 25 26 28 28 27 26 25 23 22 23 24 22 19 18 17 17 17 18 21 22 19 17 13 10 8 5 5 4 4 7 9 10 11 10 9 9 11 15 17 17 15 13 13 17 20 23 24 24 23 25 28 29 29 32 35 31 23 22 21 20 20 19
22 22 22 22 21 21 21 21 21 21 21 21 22 24 25 26 26 25 23 22 23 22 21 20 19 21 24 25 27 28 27 27 26 24 22 22 23 21 20 19 19 18 19 20 22 22 20 18 16 12 9 6 6 4 1 5 9 9 9 8 8 8 10 13 15 16 14 12 13 15 17 21 23 24 23 24 27 28 28 32 35 31 24 23 22 20 20 19
21 22 22 22 22 21 21 21 21 22 21 21 21 22 24 25 26 26 24 22 23 23 23 21 20 21 23 25 26 27 27 27 26 25 24 23 23 22 21 21 20 20 21 21 22 23 21 20 18 15 11 9 8 3 2 6 9 10 8 6 6 7 10 11 11 14 13 10 12 15 14 18 23 23 22 21 25 28 28 31 35 30 23 24 24 21 21 21
21 22 21 22 22 22 21 21 21 21 21 21 20 21 22 24 25 26 24 23 23 23 24 22 21 21 22 24 26 26 27 28 28 28 26 24 23 23 23 22 21 21 22 22 23 24 22 21 19 16 14 13 10 5 2 4 7 9 8 5 5 6 8 10 9 12 12 8 12 15 12 15 21 22 20 19 22 26 28 30 34 30 23 24 25 23 22 22
21 21 22 22 22 22 21 21 21 21 21 20 19 20 21 22 23 24 24 24 23 23 24 24 22 21 22 23 25 26 28 29 29 29 27 25 23 23 23 22 23 23 23 23 24 24 22 21 20 17 16 15 13 10 7 5 4 8 8 4 3 3 7 10 8 9 9 7 11 14 11 13 19 21 19 18 20 24 27 28 31 32 26 23 24 24 23 23
21 21 22 22 22 22 21 21 20 20 20 20 19 19 20 21 22 23 24 24 23 23 24 25 24 22 22 23 24 26 27 29 30 30 28 25 24 23 22 23 24 24 25 25 25 24 22 21 20 16 16 17 17 14 11 8 4 7 7 3 1 3 8 9 7 6 6 5 8 12 12 12 17 19 18 19 20 23 26 27 30 32 27 24 24 25 25 24
21 21 22 22 23 22 21 20 20 20 19 19 19 19 19 20 21 22 24 25 23 23 23 25 25 22 22 22 24 25 27 29 30 31 29 25 24 22 21 23 25 26 27 26 26 24 22 21 19 16 16 18 20 18 15 11 6 6 6 5 3 5 8 6 5 5 5 5 7 10 11 13 16 17 18 20 21 22 25 28 30 30 27 25 25 25 26 25
21 21 22 22 23 23 22 20 19 19 19 19 18 18 18 19 20 22 24 26 25 23 23 25 25 23 22 22 23 24 27 29 31 31 29 26 23 20 20 23 25 26 26 27 26 24 23 21 18 17 17 18 20 20 18 15 10 8 7 5 3 6 6 2 3 4 6 8 9 10 12 14 15 16 19 21 21 22 24 27 29 30 28 26 25 25 26 26
21 21 22 22 23 23 22 20 19 19 19 19 18 18 18 19 20 21 24 26 26 24 23 25 25 25 23 22 22 25 26 28 30 31 29 27 24 21 21 22 23 24 25 26 26 24 25 22 18 17 17 16 17 19 21 19 13 9 6 6 5 5 5 2 2 4 7 11 12 12 13 15 15 17 20 21 22 22 23 25 29 30 29 27 27 26 27 27
21 21 22 23 23 23 22 21 20 19 19 19 18 18 17 17 18 20 22 24 25 25 24 24 25 25 23 21 23 25 25 26 29 29 28 28 26 23 22 21 22 23 24 25 26 26 26 22 17 17 15 14 15 18 20 19 14 9 7 7 5 5 6 6 6 6 9 12 13 14 16 17 16 18 20 21 22 22 23 25 28 31 30 28 28 29 28 29
21 21 22 23 23 23 23 22 20 19 18 18 18 18 17 16 16 17 20 22 23 24 25 24 24 25 23 22 22 24 24 26 27 27 27 28 27 24 22 21 22 23 24 25 26 27 26 21 18 17 14 14 15 16 19 19 15 12 10 8 6 6 7 8 8 9 11 12 13 15 16 17 17 18 20 21 22 24 25 26 29 30 29 28 29 30 29 29
21 21 22 23 23 24 23 23 21 19 18 16 17 17 17 16 15 16 18 20 21 23 24 23 24 25 25 23 23 23 25 26 27 26 27 28 27 25 23 21 22 24 26 25 25 27 27 23 20 17 15 15 15 15 18 19 18 13 11 10 9 9 9 9 10 11 13 13 14 15 15 15 16 17 19 21 24 26 27 28 30 30 29 28 30 30 29 28
21 21 22 23 23 23 24 23 21 19 17 16 15 16 17 17 16 16 17 18 20 22 23 23 23 25 26 25 24 24 25 26 26 26 27 28 26 26 25 23 24 26 26 24 24 27 27 23 20 17 16 16 16 16 18 20 19 13 10 12 12 11 11 10 11 12 14 14 13 13 14 14 14 16 18 22 25 26 28 31 31 30 29 28 30 31 29 27
21 21 22 23 23 23 24 23 21 19 18 17 15 15 16 17 17 16 16 17 18 20 22 23 23 23 25 26 25 24 25 25 25 25 26 27 26 26 25 25 26 26 25 23 23 26 26 23 21 18 16 17 18 17 18 20 19 14 11 13 13 13 13 11 11 12 13 13 9 9 12 12 13 16 19 24 26 27 29 31 32 31 29 29 30 31 29 26
21 21 21 22 23 23 23 22 21 20 19 18 16 15 16 17 18 16 15 16 17 19 22 24 23 23 23 25 25 24 24 24 24 24 24 25 26 25 25 25 25 25 24 22 22 25 26 24 20 17 17 18 19 18 19 19 15 12 13 14 15 15 16 14 11 11 12 10 8 9 11 13 15 18 21 24 26 27 28 30 32 30 29 29 31 32 30 27
20 20 21 22 22 23 23 21 21 21 20 18 17 16 16 16 17 16 16 16 18 20 23 23 23 23 23 25 26 25 25 24 24 24 24 24 24 24 23 23 24 24 23 20 19 22 25 24 20 18 17 18 19 20 21 16 10 11 15 18 19 18 18 16 11 10 11 11 11 12 14 16 18 20 22 25 26 27 27 30 31 28 28 30 32 32 30 27
19 20 20 21 22 22 22 22 22 21 20 19 18 16 16 16 16 16 16 17 18 21 22 23 23 24 24 24 26 26 26 25 24 24 24 23 23 23 23 23 22 23 21 17 17 20 23 23 21 19 18 18 18 19 21 18 12 12 16 19 22 22 20 18 14 12 13 13 13 15 18 20 20 21 23 25 25 26 27 30 30 29 30 32 33 32 30 28
19 19 20 21 22 22 22 22 22 21 20 20 19 17 17 16 16 16 18 18 18 20 22 22 23 24 24 24 25 27 26 25 24 23 24 24 23 22 23 22 21 21 20 19 19 20 22 23 22 21 18 17 16 17 21 21 17 16 18 19 21 23 22 18 16 15 15 16 17 19 22 22 21 23 23 23 24 25 28 30 30 30 32 32 32 31 30 28
18 19 20 21 22 22 22 22 21 21 20 19 19 18 17 16 17 18 18 18 18 19 21 22 22 22 23 24 26 27 27 25 23 23 23 23 23 22 21 20 20 20 19 18 19 19 19 18 19 20 17 15 15 17 20 21 19 19 17 13 13 19 23 20 18 18 19 20 21 22 23 22 22 23 22 22 24 26 29 29 29 30 32 32 32 30 28 27
18 19 20 21 21 21 21 21 20 20 19 19 18 17 16 17 18 19 19 18 18 19 20 21 21 21 21 23 24 26 27 26 24 23 22 22 22 22 21 20 18 18 18 17 17 17 16 16 18 19 17 17 18 20 21 21 20 17 12 8 9 14 18 18 18 20 21 21 20 22 22 22 22 21 21 23 25 28 29 29 29 30 32 32 32 30 28 27
18 19 20 21 21 21 21 20 20 19 18 18 16 16 17 19 20 20 20 20 20 20 19 18 18 19 19 21 22 24 27 26 24 23 22 21 21 21 21 19 17 16 17 18 18 17 17 20 21 20 21 22 21 20 19 18 16 13 8 8 9 10 12 14 16 19 19 18 20 22 22 21 21 21 22 24 27 30 31 30 29 31 32 33 32 30 28 27
18 19 20 20 20 20 20 20 19 17 17 16 15 16 18 20 22 22 22 21 21 20 19 18 18 18 18 20 21 23 25 24 21 19 19 18 18 18 19 17 16 16 18 19 20 20 21 23 23 23 24 24 19 14 14 13 12 13 12 13 13 11 12 14 14 16 16 18 21 22 22 22 21 22 24 27 30 32 32 31 31 32 33 33 32 30 28 27
19 19 20 20 20 20 20 19 18 16 15 14 15 17 20 23 25 25 24 23 23 22 20 19 19 18 19 21 22 23 22 20 17 15 15 15 15 15 16 16 16 18 19 21 23 24 24 24 24 24 23 20 15 13 12 11 11 14 15 14 12 11 13 13 14 15 15 18 21 22 22 22 23 25 28 30 31 32 32 32 33 33 33 33 31 28 27 27
19 20 20 20 20 20 19 18 16 15 14 14 16 19 24 28 28 27 26 25 24 24 22 20 19 19 19 20 22 22 21 20 18 15 13 14 14 13 14 16 17 19 20 23 26 26 26 25 24 23 19 17 18 16 14 13 12 11 11 11 9 10 12 13 14 16 17 20 22 22 22 24 25 26 27 29 31 32 33 33 33 33 34 33 30 26 26 26
19 19 19 19 20 19 18 17 16 15 15 16 19 23 28 31 31 29 28 27 26 25 24 22 21 20 19 19 21 21 21 20 20 17 15 15 14 13 14 15 16 18 20 23 26 25 24 23 21 21 19 19 21 20 17 16 14 10 10 10 10 11 13 14 15 17 19 22 23 23 24 25 26 26 28 32 33 33 32 32 33 33 33 31 27 25 25 25
19 19 19 19 20 19 18 17 16 16 17 19 23 28 31 33 33 31 30 28 27 27 26 24 22 21 20 20 21 22 23 22 21 18 16 16 16 15 16 17 18 20 23 25 25 23 22 21 21 21 20 21 23 22 20 19 17 14 13 12 11 12 14 15 16 18 20 23 23 25 26 26 28 30 32 33 32 31 31 32 33 34 32 28 26 25 24 22
19 19 19 19 20 19 19 18 17 18 18 20 26 32 34 35 35 33 31 30 29 28 27 25 23 23 22 22 22 22 24 23 21 20 20 20 19 18 19 20 22 24 27 28 26 23 22 22 22 21 21 22 24 25 23 22 20 17 16 14 13 14 15 16 17 19 21 22 24 26 27 29 31 32 32 30 30 30 31 33 34 33 29 26 26 25 22 20
19 19 18 18 19 19 19 19 19 19 18 21 29 34 35 36 36 34 32 30 29 28 28 26 25 24 24 23 22 22 22 21 22 24 24 22 20 20 21 22 25 28 29 27 24 22 22 22 21 22 22 22 24 24 23 21 19 17 16 14 14 15 16 17 18 20 21 23 26 28 29 31 32 31 30 30 31 32 32 34 34 31 27 26 25 23 20 20
19 18 18 18 18 18 19 19 20 20 18 22 31 36 37 38 38 34 32 31 29 28 28 28 26 24 24 23 22 23 23 24 26 27 26 24 22 21 21 22 23 27 28 26 23 20 20 21 21 21 21 21 22 21 18 16 15 14 14 14 15 17 19 20 22 23 24 26 28 29 30 32 32 30 30 32 34 35 35 35 32 29 26 25 23 21 20 21
19 19 18 18 18 18 19 20 22 21 19 23 33 37 38 39 38 35 33 31 29 29 29 27 25 24 24 24 25 25 25 26 29 28 26 24 23 21 20 18 18 21 23 23 22 19 18 20 21 20 20 21 20 19 17 16 15 14 14 14 16 18 21 23 25 26 27 28 29 31 32 32 31 31 32 35 37 37 36 33 30 27 26 24 22 21 21 22
19 19 19 19 19 19 20 21 23 22 20 24 34 38 39 40 38 36 34 31 29 29 28 26 25 24 24 25 26 26 26 28 28 28 24 22 22 22 19 15 14 17 20 19 19 19 18 18 19 19 20 20 19 18 18 17 18 18 17 17 19 21 23 25 26 28 29 30 31 32 33 33 33 33 35 37 39 37 34 30 27 26 25 23 22 22 23 24
20 20 20 20 20 20 21 22 23 23 22 25 35 40 40 40 39 36 33 30 28 28 27 25 25 24 24 26 26 26 28 28 25 25 23 20 21 21 18 15 13 16 17 16 15 17 18 17 18 19 20 20 19 19 19 20 21 21 21 22 23 25 26 27 29 30 32 33 33 34 34 34 35 36 37 39 38 35 31 28 26 25 24 23 22 23 25 26
20 20 20 20 21 21 22 22 24 25 23 26 35 41 40 40 39 36 33 30 27 26 25 24 24 23 24 26 25 26 28 26 22 22 23 20 20 18 16 14 14 14 16 14 13 14 16 15 16 17 18 19 20 22 23 24 24 25 25 26 27 28 29 30 31 32 33 34 35 35 35 36 37 38 38 38 35 32 29 27 25 24 23 23 24 25 27 28
20 20 20 21 21 21 22 23 25 26 24 26 34 41 41 40 38 36 34 31 27 25 24 23 22 23 25 25 23 23 25 23 19 19 21 20 18 15 13 13 13 13 13 13 12 13 13 13 15 16 16 18 21 23 25 27 28 28 29 29 29 29 30 31 32 33 34 35 35 35 36 38 39 39 37 36 33 30 27 26 25 24 24 24 26 27 29 30
20 21 21 21 22 22 23 24 26 27 26 26 33 41 42 40 38 36 34 31 28 26 24 23 22 22 25 24 20 19 21 21 18 15 17 19 16 14 13 12 13 12 11 12 13 14 14 14 16 17 17 19 21 22 24 25 28 29 29 30 30 30 31 32 33 33 34 34 35 37 39 39 38 37 35 32 29 27 26 25 25 25 25 27 28 29 31 31
21 21 21 22 22 23 24 26 27 28 27 26 32 39 42 40 39 37 34 32 30 27 25 24 22 21 23 23 20 18 18 20 19 16 17 19 17 16 15 13 13 13 13 13 14 15 15 15 17 19 20 22 23 22 23 24 25 26 27 28 29 30 31 32 33 34 35 36 38 39 39 37 35 33 30 27 26 25 26 25 26 26 27 28 30 31 32 33
Wind_Direction
244 244 243 241 236 232 231 231 230 228 228 227 226 225 223 221 220 219 216 212 209 206 204 202 197 193 189 187 193 194 187 187 183 174 152 119 99 88 82 78 81 83 88 95 97 96 95 92 90 86 80 76 74 71 69 65 59 55 52 51 48 44 40 37 36 36 37 37 35 35 37 38 39 41 45 48 48 49 50 53 55 57 63 67 73 74 66 64
244 243 243 242 240 236 232 231 230 228 227 227 228 226 225 223 220 219 217 214 211 208 206 204 201 197 193 188 193 198 195 193 192 187 172 139 109 94 82 75 78 83 89 94 98 98 95 91 89 85 82 77 74 71 68 65 61 56 53 52 51 46 40 37 36 35 34 35 34 35 38 38 39 41 44 48 49 49 49 51 51 52 56 62 68 70 66 62
245 244 243 243 242 239 236 232 230 230 228 227 227 228 226 223 221 219 217 215 213 211 208 206 205 201 196 191 191 199 200 198 197 193 180 156 123 103 90 80 80 84 88 94 99 98 91 86 84 81 80 78 75 72 68 64 62 58 54 53 52 48 42 38 37 34 32 31 31 32 37 39 39 40 43 47 50 51 52 53 53 53 53 54 57 61 63 59
246 245 243 242 242 241 238 235 231 230 229 227 227 228 228 224 221 219 217 215 214 212 210 208 207 204 200 195 192 197 202 202 199 196 183 165 139 117 102 91 87 86 90 99 103 98 89 85 80 77 76 75 74 73 70 65 62 60 57 54 54 50 43 39 37 33 29 28 28 30 34 39 40 40 41 44 47 48 52 54 55 56 55 52 49 47 48 44
248 246 244 242 241 241 239 237 234 231 229 228 227 227 228 227 222 219 217 214 213 213 211 209 209 206 203 199 194 195 200 200 200 199 186 170 155 136 113 100 96 92 97 107 108 100 93 87 81 75 73 72 72 72 70 66 61 60 59 57 55 52 44 39 37 33 29 26 27 29 33 37 39 39 39 41 43 45 46 50 53 57 57 55 50 45 41 37
250 248 245 243 241 240 239 238 236 233 230 228 228 227 227 227 225 221 218 215 212 212 212 211 210 209 205 202 198 196 198 198 201 201 188 178 168 149 122 109 106 98 101 113 115 108 99 90 83 77 73 72 72 73 71 66 60 58 59 59 56 53 46 40 36 33 29 27 28 30 32 35 37 37 37 38 40 41 42 44 49 54 55 52 48 46 43 42
252 250 248 245 241 239 239 238 237 235 232 229 228 228 227 226 226 224 220 216 213 211 211 212 211 209 208 205 202 198 197 199 204 204 194 186 175 156 133 121 116 105 102 111 118 116 105 97 91 84 77 73 74 75 73 67 60 56 57 58 57 54 48 42 37 33 31 29 29 31 33 34 35 35 35 36 36 37 39 41 44 46 46 42 40 42 44 46
252 251 250 247 243 240 238 238 237 235 233 231 229 227 228 227 225 224 223 219 215 211 211 212 211 210 209 207 204 200 198 201 205 204 200 194 179 161 144 133 126 113 108 110 113 115 109 105 97 84 76 72 74 77 75 68 60 55 55 57 56 54 51 45 39 34 32 30 29 32 34 34 35 34 34 35 33 32 34 37 40 40 38 36 36 38 41 45
252 251 250 248 246 242 238 237 236 236 234 232 230 228 227 227 225 223 223 222 218 213 211 211 212 210 209 209 206 201 201 205 205 203 204 200 180 164 156 147 137 126 123 123 117 114 112 108 100 90 82 72 70 74 75 69 61 55 53 55 56 54 53 48 42 36 33 31 28 30 31 32 33 33 32 32 31 29 29 31 34 36 35 35 35 35 37 40
251 250 249 249 247 244 240 237 235 235 234 232 231 229 227 227 226 224 222 224 222 216 212 211 212 210 208 209 207 204 204 207 205 202 205 204 181 170 171 161 149 139 137 137 128 123 121 115 107 105 95 77 68 67 71 69 65 58 52 52 54 53 53 51 46 39 34 30 27 27 28 27 28 29 28 30 31 29 26 27 30 32 33 32 32 32 31 32
251 250 248 248 247 245 242 238 235 235 234 233 231 230 229 227 227 224 222 223 224 220 214 212 212 210 208 208 208 207 206 207 205 200 202 203 186 178 178 169 158 150 147 146 138 133 132 123 118 132 112 77 69 66 67 69 67 63 54 49 49 53 53 52 49 42 35 28 24 25 25 25 26 25 25 28 30 28 24 25 29 31 31 31 30 29 27 23
251 250 248 247 246 245 243 240 236 234 234 233 231 229 229 228 226 225 223 222 224 223 218 214 212 210 209 207 208 208 206 206 203 196 194 195 190 185 181 175 169 162 158 152 143 141 142 136 140 157 121 77 77 75 74 71 68 66 59 48 43 51 55 54 53 46 37 27 23 24 23 24 26 24 25 28 28 27 26 26 29 32 32 31 30 28 26 22
250 249 247 246 245 244 243 241 238 235 233 233 231 230 228 228 227 225 224 222 223 225 222 217 213 211 209 207 209 209 205 204 201 195 189 185 190 191 187 183 179 176 170 155 147 149 155 155 161 164 107 75 82 85 82 75 70 66 60 49 43 50 56 56 55 49 38 25 22 24 22 21 24 24 28 31 31 30 28 27 29 33 35 35 34 29 25 23
249 248 247 245 244 243 242 241 239 236 234 232 232 230 228 228 228 226 224 222 222 224 224 220 215 212 210 209 209 209 206 202 200 198 188 181 190 195 193 192 188 186 180 163 153 157 163 163 168 184 141 81 89 92 87 80 78 71 58 46 42 45 53 57 55 50 38 24 22 24 21 19 20 24 31 34 32 29 25 24 26 30 35 36 36 32 27 22
248 247 246 245 243 242 241 240 239 237 234 232 231 230 228 227 227 227 225 222 221 223 224 222 218 214 211 210 209 208 205 200 200 201 191 183 190 198 199 198 192 188 186 171 158 162 166 161 168 186 156 112 106 102 97 93 88 79 62 45 37 41 49 52 50 45 36 22 20 23 23 19 17 21 28 28 25 21 20 21 21 24 29 30 30 30 27 22
248 246 245 244 242 241 240 239 238 238 235 233 231 230 229 227 227 227 225 223 221 221 223 222 220 216 214 212 210 208 204 200 202 202 196 188 190 199 202 198 192 190 188 173 163 166 162 156 170 181 161 141 123 110 112 109 93 80 68 49 37 44 48 43 39 36 30 18 17 22 25 21 17 18 21 19 16 13 15 18 19 20 23 22 22 22 23 20
247 246 244 243 241 240 239 238 237 237 236 234 232 230 229 228 227 227 226 224 221 221 222 222 220 218 217 213 211 210 204 202 204 202 199 193 192 200 203 196 193 192 185 173 167 166 159 160 176 183 172 161 146 138 135 119 97 76 65 49 36 42 43 35 30 26 20 16 17 20 25 23 19 18 16 11 10 10 14 17 16 17 19 17 15 16 18 16
247 245 243 241 240 240 239 237 236 235 235 234 232 231 230 228 227 226 225 225 222 222 222 222 220 218 218 214 212 211 206 205 206 203 202 198 197 202 204 199 194 189 183 175 168 164 163 169 179 184 182 189 194 194 150 104 89 69 59 44 25 34 40 28 20 18 12 12 21 21 23 24 20 19 16 8 4 7 13 16 13 13 15 12 10 9 10 9
247 245 243 241 239 239 238 237 235 234 233 233 231 231 230 228 227 226 225 225 223 222 222 222 218 217 217 215 214 212 207 206 207 205 204 203 201 200 204 205 196 189 185 177 170 169 172 176 181 183 187 205 213 202 82 89 83 64 52 36 18 34 43 26 10 9 6 11 30 26 19 23 21 17 16 8 1 3 9 13 12 12 13 9 5 4 4 3
246 244 242 240 238 237 238 237 235 234 232 232 231 230 229 229 228 226 224 224 224 222 222 222 219 217 217 216 215 212 208 206 208 209 206 206 206 201 202 205 200 194 189 180 174 178 183 185 187 184 189 205 207 195 174 132 102 72 58 49 46 47 35 22 10 5 4 16 38 32 16 18 21 16 13 8 1 2 5 10 12 12 10 5 2 1 1 360
245 244 242 239 237 236 237 237 235 234 233 232 231 230 230 229 229 227 224 223 223 221 221 222 220 218 216 216 215 212 209 207 209 212 209 207 210 205 200 203 204 196 191 186 183 189 194 193 193 187 191 203 203 205 211 200 150 96 94 99 81 44 10 13 18 10 5 22 39 35 21 14 16 12 9 5 0 1 2 5 7 7 6 3 1 1 1 358
243 242 241 238 236 234 235 237 235 234 232 231 231 230 230 230 229 227 224 222 221 219 220 221 220 218 215 214 215 214 211 210 211 214 211 208 211 208 197 201 205 196 195 195 193 198 200 199 202 194 193 204 207 214 220 218 187 126 140 186 263 335 348 8 25 15 8 24 31 29 23 9 5 2 -0 359 357 358 0 1 1 1 3 4 3 0 358 356
242 241 239 236 234 232 234 235 235 233 231 230 229 228 229 229 229 227 224 222 220 218 219 220 219 218 216 214 214 214 213 212 213 215 212 208 211 208 196 199 203 200 202 203 200 204 203 205 210 200 197 206 213 221 225 221 200 159 183 227 266 318 339 4 25 13 9 16 9 10 9 0 356 351 348 350 352 356 359 359 360 1 2 2 359 356 354 354
241 240 238 235 232 230 231 233 234 232 230 228 227 226 227 227 228 226 223 221 219 217 218 220 219 217 216 213 212 213 215 215 215 216 213 208 209 206 196 200 206 207 208 207 207 208 207 213 216 206 204 210 218 226 228 228 218 196 207 228 261 322 333 356 26 3 353 348 343 347 349 350 350 341 337 342 348 354 357 358 1 2 360 358 356 354 351 351
241 239 237 233 230 228 228 230 231 231 229 227 225 225 225 226 227 225 222 221 218 216 218 220 219 217 216 213 211 213 215 218 219 218 214 209 208 204 199 202 210 215 213 210 211 209 211 220 220 214 215 218 227 233 233 236 232 219 228 238 257 307 308 296 327 327 332 332 329 331 331 335 336 328 329 335 342 351 354 354 358 360 358 357 356 354 351 349
240 238 235 232 228 226 226 227 228 228 228 226 224 224 225 226 228 226 224 221 218 216 216 218 219 217 214 212 211 211 213 217 220 220 216 212 209 205 201 202 208 217 216 213 213 212 219 227 224 222 225 226 233 239 238 237 233 228 237 242 254 275 274 279 293 304 318 321 322 324 321 322 323 320 325 330 337 345 347 347 351 354 354 354 355 354 352 349
239 237 234 230 226 224 223 225 225 226 226 226 225 225 227 229 230 229 227 223 219 216 216 218 219 216 212 211 211 210 211 214 217 218 217 216 214 209 205 202 206 214 216 216 215 217 226 230 227 230 229 227 237 244 242 235 228 232 238 241 245 242 255 275 291 302 311 313 316 317 316 319 320 321 326 328 334 340 341 340 344 347 348 349 350 351 351 348
238 236 232 228 224 221 222 223 223 224 225 227 226 226 227 228 230 231 228 225 220 217 217 218 219 216 212 210 211 210 212 213 213 214 214 216 216 213 210 205 206 213 216 218 216 218 227 229 228 232 227 227 240 246 243 234 230 238 239 236 237 236 250 273 291 303 305 306 309 310 312 319 321 323 325 326 332 337 337 337 339 342 343 343 345 347 347 346
237 234 230 227 222 220 220 221 222 223 224 225 226 226 225 226 228 230 228 225 220 216 217 218 218 218 214 210 209 212 214 214 213 212 213 215 215 215 214 209 209 214 218 220 216 217 226 230 229 230 224 227 239 244 246 239 234 239 237 230 233 241 252 269 291 303 304 304 305 305 308 316 322 324 323 324 331 336 336 336 336 337 338 337 340 344 344 342
235 232 228 225 220 218 219 219 220 221 222 223 224 224 224 224 226 228 226 223 218 215 215 215 216 217 215 211 210 213 215 215 214 213 213 215 213 215 216 213 213 218 220 221 217 218 228 231 230 229 222 226 236 240 245 243 237 235 228 225 235 246 253 269 290 298 299 304 307 307 307 315 324 324 323 325 330 335 335 334 333 333 332 332 336 341 342 339
233 230 226 222 218 216 217 217 218 220 221 221 222 222 222 223 226 226 223 220 216 214 214 213 213 214 214 211 209 213 216 216 214 212 213 214 214 215 217 216 217 220 224 225 219 218 228 234 232 227 221 226 234 236 241 245 241 230 222 229 243 250 254 268 291 293 290 294 305 313 313 317 324 324 323 325 329 334 333 332 332 330 329 329 332 337 338 336
231 227 224 219 215 214 215 215 216 219 220 221 222 221 221 223 224 221 219 217 214 213 213 212 210 210 211 210 208 210 215 216 213 211 211 213 214 215 217 218 219 221 226 229 221 219 227 234 232 225 220 222 225 227 233 237 232 223 226 234 242 248 255 267 284 288 285 292 306 314 312 313 318 320 321 323 328 332 330 330 331 330 329 329 330 333 334 333
229 224 221 216 213 213 213 214 215 217 220 222 223 224 224 223 219 216 216 216 214 214 214 212 210 209 209 209 208 210 213 215 212 210 210 211 213 214 215 217 219 221 223 220 213 214 220 227 228 222 220 221 220 219 223 226 221 218 225 229 231 237 247 259 272 279 287 298 307 307 305 308 313 315 318 323 327 328 326 327 328 327 327 328 330 332 333 331
226 221 216 212 210 211 212 213 214 216 219 221 223 225 225 219 211 211 216 216 215 215 214 212 212 211 209 207 207 209 213 215 213 212 212 211 211 213 214 216 217 220 223 218 212 211 214 219 221 218 217 220 218 210 212 221 222 221 227 229 228 231 236 247 266 279 288 297 299 297 299 304 308 312 318 323 325 323 323 325 325 324 325 327 330 331 332 331
222 217 211 209 209 210 211 212 213 215 218 221 223 223 223 214 205 209 216 216 215 215 213 212 212 212 211 209 207 207 211 214 213 213 215 213 212 212 213 214 215 218 223 222 219 216 215 215 212 208 203 200 199 199 204 213 219 224 232 236 233 233 235 243 260 273 281 285 288 292 297 302 307 313 320 322 322 322 322 324 323 323 325 327 330 332 331 331
218 212 207 207 209 210 211 212 213 216 218 221 223 220 216 208 203 207 212 213 212 211 211 211 210 210 211 211 209 207 210 213 212 213 216 215 214 214 214 214 212 212 215 216 214 211 207 196 191 188 180 176 184 192 197 203 214 224 226 221 226 233 235 242 257 268 273 280 290 298 301 305 311 315 318 319 321 324 324 323 322 323 325 327 329 330 329 328
214 208 206 207 208 210 211 211 214 218 221 224 222 217 212 204 201 203 206 207 208 206 204 204 205 207 210 212 209 206 208 210 211 213 215 216 216 216 217 217 215 210 208 206 201 197 189 181 178 175 173 180 189 195 197 202 211 215 208 212 226 238 244 249 259 266 274 288 302 307 307 308 312 315 316 317 321 325 324 322 321 323 325 326 326 325 325 325
210 206 206 207 208 210 211 212 216 221 224 223 218 214 209 199 196 199 199 201 202 198 195 196 199 202 205 207 205 205 206 206 207 210 212 214 217 217 216 214 210 205 203 198 189 183 179 174 173 176 184 194 198 197 205 215 215 205 205 220 227 235 253 261 266 273 286 303 309 310 310 310 312 314 315 317 319 321 321 319 318 321 324 325 323 321 321 321
209 206 207 208 209 209 211 214 218 221 222 217 212 209 200 191 192 196 196 197 197 192 189 192 193 195 201 204 203 202 200 196 198 203 204 206 211 213 209 205 201 199 198 190 179 176 177 175 177 183 191 198 194 188 200 218 222 213 218 233 239 247 262 268 276 285 298 309 311 312 313 313 313 314 316 318 319 319 318 316 316 318 321 323 321 319 318 318
209 208 208 209 210 210 212 216 219 220 216 209 205 201 191 187 191 195 194 194 194 189 186 188 188 191 200 206 205 200 193 187 189 190 191 198 202 201 198 197 196 194 191 184 179 180 181 180 183 189 192 195 192 190 200 213 220 224 237 256 270 278 282 285 288 292 302 310 313 315 317 316 315 315 317 318 319 317 314 313 315 317 318 320 319 317 317 316
210 209 209 210 210 212 214 217 218 214 208 203 200 195 189 188 191 192 192 193 192 187 183 182 185 190 198 202 201 194 185 181 182 180 182 188 189 187 186 188 191 189 185 184 184 184 182 182 186 191 195 198 197 197 205 215 219 224 244 263 276 283 286 289 290 293 302 308 309 311 314 314 312 312 313 314 316 315 313 313 315 317 317 318 318 317 316 314
211 210 209 209 209 212 213 214 211 205 202 200 195 190 186 186 189 190 191 193 190 185 182 181 184 190 196 199 196 188 181 178 175 171 171 173 175 179 178 178 183 182 178 179 180 179 181 184 186 191 196 200 202 203 208 216 219 224 238 252 266 275 281 287 291 293 299 302 303 306 308 307 307 309 311 313 314 314 314 314 316 316 316 316 317 317 314 311
211 210 210 210 211 213 213 211 205 200 200 197 190 186 184 185 189 190 192 193 189 186 185 182 184 189 193 196 192 181 178 176 169 163 162 164 172 177 175 175 178 177 176 177 178 181 186 187 187 193 199 200 203 208 212 217 223 231 244 255 265 274 280 285 288 287 289 292 295 299 303 305 309 312 314 316 316 315 314 315 315 315 314 315 316 315 311 307
212 211 211 212 213 216 213 208 200 197 200 197 189 185 184 188 191 191 192 194 191 189 187 185 187 191 193 194 186 173 168 165 160 160 159 162 172 177 177 179 179 177 179 181 185 192 192 187 190 199 203 204 208 214 219 225 232 240 251 260 266 271 275 277 278 279 281 286 291 295 301 308 313 315 317 318 317 315 314 313 313 314 314 316 316 312 307 304
211 211 212 212 213 214 210 203 197 195 199 197 190 186 188 192 193 192 193 195 192 188 185 186 188 189 191 188 176 164 160 157 159 162 161 164 172 175 179 184 181 180 183 186 192 199 196 192 198 206 211 216 219 222 226 232 240 248 254 257 260 264 268 269 272 276 280 285 290 295 302 309 312 314 315 316 315 314 313 312 311 312 314 315 312 308 305 303
210 211 211 210 210 209 204 199 195 195 199 197 191 189 192 195 195 193 194 194 191 185 182 185 187 187 188 179 164 159 159 160 162 163 163 167 170 171 176 182 182 181 183 188 195 200 199 201 207 214 221 228 230 230 232 234 242 252 253 251 254 259 263 267 271 277 282 287 292 297 303 308 311 310 311 313 314 313 312 311 310 311 313 312 308 304 303 303
209 210 210 208 208 204 200 199 196 194 198 197 192 192 195 197 196 195 193 192 190 185 183 186 189 190 188 175 162 159 162 165 165 164 166 171 171 170 174 176 178 182 182 187 199 205 207 210 215 219 225 233 238 240 243 247 252 258 257 254 258 263 266 271 277 282 286 290 295 299 302 306 309 308 308 310 312 312 311 310 310 310 310 307 303 301 301 302
210 210 210 208 208 204 201 200 197 195 198 196 193 195 199 200 198 197 194 192 191 188 187 190 191 189 184 172 163 164 167 168 169 169 171 173 174 176 176 171 169 177 180 186 200 208 209 213 218 221 225 234 243 248 251 255 259 262 263 264 266 270 274 278 282 284 287 291 295 298 301 304 307 307 308 309 311 311 310 309 308 307 306 303 301 301 302 303
211 212 211 209 207 205 202 201 198 198 199 197 195 198 202 203 201 199 197 195 191 188 188 190 190 187 179 172 170 172 172 170 172 175 176 174 174 176 175 172 172 177 184 190 203 212 213 217 226 229 232 239 246 250 253 256 260 263 267 270 273 277 281 283 285 287 289 293 296 298 300 303 305 305 307 309 310 309 308 307 306 304 303 301 301 302 303 304
212 212 212 210 207 204 202 200 199 199 199 198 198 200 203 204 203 201 200 197 192 188 187 187 189 185 178 176 179 177 174 173 175 181 181 177 174 174 175 182 187 190 196 203 218 228 226 233 244 246 248 250 250 251 254 256 259 263 267 272 277 281 284 286 288 290 293 295 297 298 300 302 303 305 307 308 307 306 306 305 304 303 302 302 303 304 305 305
213 213 212 210 207 203 201 200 200 200 200 199 199 201 204 205 205 204 203 200 195 190 187 188 190 188 182 183 186 183 180 182 183 186 186 181 176 173 178 190 197 202 215 223 232 239 239 246 259 263 266 266 260 256 257 259 262 265 269 273 277 281 284 286 289 290 292 294 295 297 300 302 304 305 306 306 304 304 304 304 303 303 304 305 306 306 307 307
215 215 214 211 206 202 200 200 200 200 200 200 199 203 206 207 207 206 204 202 199 192 189 192 194 190 186 189 193 193 194 194 189 185 184 183 182 181 183 194 205 214 230 239 244 252 256 262 270 271 269 267 263 260 260 262 265 268 271 274 277 281 283 285 287 289 291 292 295 298 301 303 304 305 305 304 303 303 305 304 304 305 306 308 308 308 308 308